User: anonymous   Login
Location: Unspecified
(0.0000°N, 0.0000°E)
Time: 22:23:19
(UTC+00:00)
Language:

MetOp-B - Orbit

View from above orbital plane
View from above orbital plane
View from above satellite
View from above satellite

Ground track
Ground track

The orbit data is extracted from the following two-line orbital elements,

1 38771U 12049A   17327.67769733 -.00000080  00000-0 -16402-4 0  9997
2 38771  98.7021  25.3672 0001844 123.9223 236.2109 14.21486857268936
Epoch (UTC): 23 November 2017 16:15:53
Eccentricity: 0.0001844
inclination: 98.7021°
perigee height: 819 km
apogee height: 821 km
right ascension of ascending node: 25.3672°
argument of perigee: 123.9223°
revolutions per day: 14.21486857
mean anomaly at epoch: 236.2109°
orbit number at epoch: 26893

The dashed part of the orbit path shows where the satellite is in the earth's shadow,  

DLR